AirNav   ProFlight Series 2 Aviation Headset
 
 1278 users online  

38IN Fuller Field Airport
Brownsburg, Indiana, USA

GOING TO BROWNSBURG?


FAA INFORMATION EFFECTIVE 16 JULY 2020

Location

FAA Identifier: 38IN
Lat/Long: 39-54-07.1510N 086-21-46.9830W
39-54.119183N 086-21.783050W
39.9019864,-86.3630508
(estimated)
Elevation: 910 ft. / 277 m (estimated)
Variation: 02W (1985)
From city: 4 miles NE of BROWNSBURG, IN
Time zone: UTC -4 (UTC -5 during Standard Time)
Zip code: 46112

Airport Operations

Airport use: Private use. Permission required prior to landing
Activation date: 11/1978
Control tower: no
ARTCC: INDIANAPOLIS CENTER
FSS: TERRE HAUTE FLIGHT SERVICE STATION
OR LOCAL CALL 244-3316.
Attendance: UNATNDD
Wind indicator: yes
Segmented circle: no

Airport Communications

WX ASOS at EYE (5 nm SE): 121.575 (317-329-1754)
WX AWOS-3PT at TYQ (9 nm NE): 120.725 (317-769-3154)
WX AWOS-3P at 2R2 (11 nm SW): 118.025 (317-718-4872)
WX ASOS at IND (12 nm S): PHONE 317-241-0348
WX AWOS-3 at 8A4 (13 nm SE): 118.250 (317-955-3160)
WX AWOS-3 at UMP (15 nm E): 119.375 (317-842-3911)

Nearby radio navigation aids

VOR radial/distance  VOR name  Freq  Var
VHPr001/5.2BRICKYARD VORTAC116.3001E
SHBr302/29.6SHELBYVILLE VOR/DME112.0001E

 
NDB name  Hdg/Dist  Freq  Var  ID
METROPOLITAN265/14.633803WUMP ..- -- .--.
CRAWFORDSVILLE105/25.938804WCFJ -.-. ..-. .---

Airport Services

Runway Information

Helipad H1

Dimensions: 90 x 90 ft. / 27 x 27 m
Surface: concrete
Traffic pattern: leftleft

Runway 9/27

Dimensions: 2000 x 125 ft. / 610 x 38 m
Surface: turf
RUNWAY 9  RUNWAY 27
Traffic pattern: rightleft

Airport Ownership and Management from official FAA records

Ownership: Privately-owned
Owner: ESTAN L. FULLER
904 LAKESHORE DR
POLK CITY, FL 33868
Phone (863) 602-9182
Manager: RED CALVERT
8837 LINCOLN CR. CIR.
INDIANAPOLIS, IN 46234
Phone 317-299-6693

Airport Operational Statistics

Aircraft based on the field: 8
Single engine airplanes: 5
Multi engine airplanes: 1
Helicopters: 2
    

Additional Remarks

E111-2 HEL ASP: INGRESS/EGRESS HOP ARE CONDUCTED FROM 110-360 DEGS CLKWS USING PAD AS CENTER OF A COMPASS ROSE.
FOR CD CTC INDIANAPOLIS APCH AT 317-227-5743.

Instrument Procedures

There are no published instrument procedures at 38IN.

Some nearby airports with instrument procedures:

KEYE - Eagle Creek Airpark (5 nm SE)
KTYQ - Indianapolis Executive Airport (9 nm NE)
2R2 - Hendricks County Airport-Gordon Graham Field (11 nm SW)
KIND - Indianapolis International Airport (12 nm S)
8A4 - Indianapolis Downtown Heliport (13 nm SE)
KUMP - Indianapolis Metropolitan Airport (15 nm E)
5I4 - Sheridan Airport (18 nm N)
 
Loc | Ops | Rwys | IFR | FBO | Links
Com | Nav | Svcs | Stats | Notes
Area around 38IN (Fuller Field Airport)
 
Road maps at: MapQuest Bing Google
 
Aerial photo
No photo
 
Sectional chart

 
Airport distance calculator
Flying to Fuller Field Airport? Find the distance to fly.

From to 38IN

Sunrise and sunset
Times for 05-Aug-2020
 Local
(UTC-4)
 Zulu
(UTC)
Morning civil twilight06:2010:20
Sunrise06:5010:50
Sunset20:5300:53
Evening civil twilight21:2301:23

Current date and time
Zulu (UTC)  05-Aug-2020 21:59:39
Local (UTC-4)  05-Aug-2020 17:59:39
 
METAR
KEYE 
5nm SE 
052153Z AUTO 32006KT 10SM FEW055 23/11 A3010 RMK AO2 SLP190 T02330106
KTYQ 
9nm NE 
052135Z AUTO 02004KT 10SM CLR 21/12 A3013 RMK AO2 T02070118
KIND 
12nm S 
052154Z 32004KT 10SM SCT060 BKN250 23/11 A3010 RMK AO2 SLP191 T02330106
TAF
KIND 
12nm S 
052019Z 0520/0624 35006KT P6SM SCT050 BKN250 FM060100 VRB03KT P6SM FEW250 FM060600 VRB03KT P6SM SKC FM062100 02005KT P6SM FEW040 SCT080
NOTAMs
Click for the latest NOTAMs
NOTAMs are issued by the DoD/FAA and will open in a separate window not controlled by AirNav.

 

 
 

Would you like to see your business listed on this page?

 If your business provides an interesting product or service to pilots, flight crews, aircraft, or users of the Fuller Field Airport, you should consider listing it here.  To start the listing process, click on the button below
 
Add a business
 

Other Pages about Fuller Field Airport

Update a link
 
Copyright © AirNav, LLC. All rights reserved. Privacy Policy  Contact